Wind_Speed
7 7 7 7 8 9 9 10 10 10 9 9 9 9 8 8 8 8 7 7 7 7 7 8 8 6 7 6 6 6 6 5 5 4 4 4 4 4 4 4 5 5 6
7 7 6 6 7 8 9 9 9 9 8 8 9 9 9 8 8 8 8 8 7 7 7 7 8 7 6 6 6 6 6 6 6 5 6 5 5 5 4 5 6 6 6
7 7 6 6 7 7 8 8 9 8 8 8 8 9 9 8 8 8 8 8 7 7 6 6 6 6 6 6 6 6 6 7 7 6 7 6 6 6 6 7 7 7 7
7 7 7 7 7 7 7 7 8 8 8 8 8 8 8 8 8 8 8 8 7 7 6 5 5 5 6 6 6 6 7 6 7 7 7 7 7 7 7 7 8 8 9
8 7 7 7 7 7 7 6 7 7 8 8 8 8 9 8 8 8 8 7 7 7 6 6 6 6 6 6 6 6 7 6 7 7 7 8 8 8 9 8 8 9 10
9 9 8 8 7 7 7 7 7 7 8 8 9 9 9 9 8 8 8 8 7 7 7 6 6 7 7 7 7 7 7 7 7 7 7 8 9 9 9 9 9 10 11
9 10 9 8 8 7 7 7 7 7 8 8 9 9 9 10 10 9 9 9 8 8 7 7 7 7 7 8 8 8 8 8 7 7 8 8 9 10 10 10 10 11 12
11 10 9 9 8 8 7 7 8 8 8 8 9 9 9 10 10 10 10 9 9 8 8 8 8 8 8 8 9 8 8 8 8 8 9 10 10 11 11 11 11 11 12
12 12 10 10 10 9 8 8 8 8 8 8 9 10 10 11 11 11 11 10 9 9 9 9 9 9 9 9 9 9 9 9 9 9 10 11 11 12 12 12 12 13 13
14 13 12 12 11 10 10 10 9 9 9 9 10 10 10 11 12 12 12 11 10 10 10 9 9 10 9 9 9 9 10 10 10 11 11 12 13 13 13 13 14 14 14
14 13 13 13 13 12 11 11 10 10 11 11 11 11 11 12 12 13 12 12 12 11 11 11 11 11 11 11 11 11 11 11 12 12 13 13 13 14 14 14 15 15 15
16 15 13 13 14 14 13 13 13 12 12 13 12 12 12 13 13 13 13 13 13 12 12 12 12 12 11 12 12 12 12 13 13 14 14 15 14 15 15 16 16 17 17
17 17 15 15 16 16 15 15 15 14 14 14 14 14 14 14 14 14 14 14 13 13 13 12 12 12 12 12 12 12 13 13 14 14 15 16 16 17 17 18 18 19 19
18 18 18 18 18 18 18 17 17 16 16 16 15 16 16 15 15 15 15 14 14 14 14 13 13 13 13 13 14 13 13 14 15 15 16 17 17 18 19 19 19 20 20
20 20 20 19 19 19 19 18 18 17 17 17 16 17 17 17 17 16 16 16 15 15 15 15 15 15 15 14 14 14 15 15 16 17 17 18 19 19 20 20 20 20 21
22 22 22 21 21 21 21 20 19 18 18 18 18 18 18 18 18 18 17 17 16 16 16 16 16 16 16 16 16 15 16 16 17 18 19 20 20 21 21 21 21 21 22
24 24 23 23 23 23 22 22 21 20 20 20 20 20 20 20 20 19 19 18 17 17 17 17 17 18 18 18 18 18 17 18 18 19 20 20 21 22 22 22 22 22 23
26 26 25 25 25 25 24 24 23 22 22 22 22 22 21 21 21 21 21 20 19 20 20 19 19 19 20 20 20 20 20 20 20 20 21 21 22 24 23 23 23 24 24
27 26 26 27 27 26 26 25 25 24 24 23 23 23 22 22 22 23 23 22 22 22 22 22 22 22 22 22 22 22 22 22 22 22 23 22 23 24 25 25 25 25 25
27 27 27 27 28 27 26 25 25 25 24 24 24 24 23 24 24 24 24 24 24 24 24 24 24 24 24 24 24 24 25 25 25 25 25 24 24 24 25 26 26 26 26
28 28 27 28 27 26 26 26 26 26 25 25 25 25 25 25 26 26 26 26 25 25 25 25 25 25 25 26 26 27 27 27 27 27 26 26 26 26 26 27 27 27 27
29 29 29 28 28 27 27 27 27 27 27 27 27 27 27 27 28 28 27 27 27 26 26 26 26 26 27 27 27 28 28 28 28 28 28 27 28 28 29 29 28 28 28
30 30 29 29 30 29 29 28 28 28 28 29 29 29 29 29 29 29 28 28 28 28 28 28 28 28 28 28 28 28 29 29 29 29 29 29 29 29 29 29 30 30 30
31 31 30 30 30 30 29 29 30 30 31 31 30 30 30 30 30 30 29 29 29 29 29 30 30 29 29 28 28 28 29 29 29 30 30 31 31 31 31 32 32 32 32
33 32 32 32 31 31 31 31 32 32 32 32 32 32 31 31 31 31 30 30 29 29 29 30 30 29 29 29 28 29 29 30 30 30 31 32 32 33 33 34 34 34 34
35 34 34 33 32 32 33 33 33 32 32 33 33 33 33 32 32 31 31 31 31 30 30 31 31 30 30 30 30 30 30 30 31 32 32 33 34 34 34 35 35 36 36
Wind_Direction
9 10 14 19 19 21 22 24 25 25 28 33 38 39 37 37 37 37 31 30 28 25 25 25 31 33 32 31 33 37 35 30 25 17 13 7 7 9 5 359 355 347 339
350 353 1 7 10 13 15 16 16 19 23 27 29 28 29 28 28 26 23 21 19 19 20 23 26 27 25 22 19 23 18 11 10 6 7 4 359 344 344 340 339 339 335
335 336 344 353 359 360 5 8 9 12 17 20 18 14 18 22 19 17 15 14 12 11 14 14 10 8 7 5 5 6 2 0 359 357 358 357 354 355 346 338 335 333 330
318 325 332 344 347 348 351 357 2 1 3 7 8 6 10 12 13 13 11 9 7 4 359 359 354 348 343 344 351 352 351 352 354 353 352 354 357 351 346 338 331 330 327
306 311 318 327 335 338 340 347 351 355 358 360 359 0 5 6 4 3 3 0 357 354 346 342 342 341 338 338 342 344 345 342 342 344 346 348 346 342 341 337 333 330 325
298 303 308 313 321 327 328 332 339 343 347 350 353 354 356 356 354 353 352 349 347 345 341 337 337 338 339 339 338 336 337 334 333 335 339 339 338 338 336 333 332 333 332
283 291 300 300 308 312 314 318 325 332 334 337 342 345 347 346 345 344 342 341 340 335 334 334 333 330 328 329 328 326 326 327 332 334 333 331 329 331 329 325 327 329 330
275 277 286 292 296 301 302 304 310 317 324 329 331 335 337 338 340 340 337 335 333 330 329 330 328 326 324 323 322 317 321 326 329 325 326 326 326 326 328 326 327 327 328
270 273 275 284 291 295 294 294 299 305 313 318 321 326 328 332 335 335 335 330 326 324 324 323 324 323 324 322 319 318 319 320 322 321 321 320 319 321 321 322 322 323 323
271 273 276 283 286 287 287 286 291 299 304 307 308 314 320 323 327 331 332 330 324 319 318 316 315 317 319 320 319 314 312 314 315 315 316 317 317 318 321 322 321 321 320
271 271 276 280 282 284 286 287 287 292 294 296 297 301 310 316 319 322 324 323 319 316 313 312 310 308 306 308 310 306 306 305 308 312 314 315 316 317 318 320 320 319 318
272 274 273 276 278 280 283 285 284 285 288 290 292 296 302 309 314 317 317 317 314 312 311 310 308 306 303 303 305 302 303 303 304 309 312 312 313 315 314 315 316 315 316
269 270 271 273 275 275 277 281 283 280 283 284 287 291 296 301 305 310 312 312 311 310 310 309 308 307 306 304 304 303 303 302 303 308 312 313 314 312 310 313 313 312 312
269 268 268 270 270 273 275 278 282 281 281 280 282 286 291 293 298 302 305 307 308 307 306 305 304 306 305 303 301 301 302 302 303 308 311 312 313 312 312 312 312 311 311
267 266 267 267 265 269 273 274 277 277 276 276 278 283 286 288 293 298 301 301 302 303 302 301 301 302 302 301 300 301 303 303 304 307 309 310 312 311 312 311 309 309 311
265 265 267 265 263 265 267 271 272 273 273 275 276 279 281 286 289 292 295 297 296 297 298 298 299 300 299 298 299 300 302 304 303 305 307 310 311 311 314 312 309 307 308
265 267 267 266 263 261 262 266 268 270 272 273 274 277 280 283 286 289 289 291 293 292 294 295 297 298 297 295 295 297 299 301 302 304 307 310 310 310 311 312 310 309 309
264 265 266 265 263 259 260 262 265 267 269 271 273 276 278 279 281 283 285 287 289 290 290 292 293 295 295 295 295 295 297 299 301 303 304 306 307 306 308 310 309 310 309
265 266 266 265 263 259 258 259 261 266 268 270 272 274 277 277 278 279 281 284 286 287 288 289 290 291 292 293 293 294 295 296 297 299 300 303 305 305 305 306 306 305 306
265 266 265 263 261 260 258 258 260 264 267 270 272 273 275 276 278 281 283 284 283 284 285 286 288 288 289 291 291 293 294 295 297 298 300 301 302 303 304 304 304 303 303
265 266 264 262 259 259 261 262 262 264 267 269 270 272 274 277 279 280 282 282 282 282 284 285 287 287 288 289 290 292 293 294 295 296 298 300 300 300 302 303 303 302 302
264 264 263 261 259 259 261 261 262 263 265 267 269 271 273 275 277 278 279 281 281 281 283 284 285 287 287 288 289 290 291 293 295 295 297 299 298 299 301 302 301 302 302
262 261 261 261 260 260 261 261 263 265 266 267 268 270 273 274 276 276 277 278 279 281 282 283 285 286 286 287 288 288 289 291 293 295 297 298 299 300 301 302 302 303 303
259 260 260 260 261 260 261 262 264 266 267 268 269 270 272 273 274 275 275 276 278 279 280 281 283 285 286 287 289 290 290 290 292 295 297 298 299 299 301 302 301 301 302
257 257 259 259 261 261 262 263 265 267 267 268 270 272 273 274 273 274 273 274 276 277 279 281 282 283 285 285 286 288 289 290 292 294 296 298 299 299 300 300 300 300 300
256 257 258 259 261 261 262 265 266 268 269 269 271 271 272 272 273 274 273 273 274 275 277 279 281 282 284 284 285 286 287 288 290 292 294 296 298 298 299 299 299 299 300
Height
5906 5905 5905 5904 5903 5903 5902 5901 5900 5900 5899 5898 5897 5896 5896 5895 5894 5894 5893 5892 5892 5891 5891 5890 5889 5889 5888 5888 5887 5887 5887 5886 5886 5886 5885 5885 5884 5884 5883 5883 5883 5883 5882
5907 5906 5905 5905 5905 5904 5903 5903 5902 5901 5900 5900 5899 5898 5897 5896 5896 5895 5894 5894 5893 5892 5892 5892 5891 5890 5890 5889 5889 5888 5887 5887 5887 5886 5886 5885 5885 5884 5884 5883 5883 5882 5882
5907 5907 5906 5905 5905 5905 5905 5904 5903 5902 5902 5901 5900 5899 5898 5898 5897 5896 5895 5895 5894 5893 5893 5893 5892 5892 5891 5890 5890 5889 5888 5888 5887 5886 5886 5885 5885 5884 5884 5883 5882 5882 5882
5907 5907 5906 5905 5905 5905 5905 5905 5904 5903 5903 5902 5901 5900 5899 5899 5898 5897 5896 5896 5895 5894 5894 5893 5893 5892 5892 5891 5890 5889 5889 5888 5887 5887 5886 5885 5884 5884 5883 5883 5881 5881 5880
5906 5906 5906 5906 5905 5905 5905 5905 5904 5904 5903 5902 5902 5901 5900 5899 5898 5898 5897 5896 5895 5895 5894 5894 5893 5892 5892 5891 5890 5890 5889 5888 5888 5887 5886 5885 5884 5883 5882 5882 5881 5880 5879
5906 5905 5905 5905 5905 5905 5905 5905 5904 5904 5903 5903 5902 5901 5901 5900 5899 5898 5897 5896 5896 5895 5894 5894 5893 5892 5892 5891 5890 5890 5889 5888 5887 5886 5886 5885 5884 5882 5882 5880 5879 5878 5877
5904 5904 5904 5904 5904 5904 5904 5904 5904 5904 5903 5903 5902 5901 5900 5900 5899 5898 5897 5896 5896 5895 5894 5893 5892 5892 5891 5890 5890 5889 5888 5887 5887 5886 5885 5884 5883 5882 5881 5879 5878 5877 5876
5903 5903 5903 5903 5903 5903 5903 5903 5903 5903 5902 5902 5901 5901 5900 5899 5898 5897 5896 5896 5895 5894 5893 5892 5892 5891 5890 5890 5889 5888 5887 5887 5886 5885 5884 5883 5882 5880 5879 5878 5877 5875 5874
5901 5900 5900 5900 5901 5902 5902 5902 5902 5901 5901 5901 5900 5900 5899 5898 5898 5897 5896 5895 5894 5893 5892 5891 5891 5890 5889 5888 5887 5887 5886 5885 5885 5884 5883 5882 5880 5879 5877 5876 5874 5873 5872
5898 5898 5898 5898 5899 5899 5900 5900 5900 5900 5899 5899 5899 5898 5898 5897 5896 5895 5894 5893 5892 5891 5891 5890 5889 5888 5888 5887 5886 5885 5884 5884 5883 5882 5881 5880 5878 5877 5875 5873 5872 5870 5869
5895 5896 5896 5896 5896 5897 5897 5897 5898 5898 5897 5897 5897 5896 5896 5895 5895 5894 5893 5892 5891 5890 5889 5888 5887 5886 5886 5885 5884 5883 5882 5882 5881 5880 5879 5878 5876 5875 5873 5871 5870 5868 5866
5892 5892 5893 5893 5894 5894 5894 5894 5895 5895 5895 5895 5894 5894 5894 5893 5893 5892 5891 5890 5889 5887 5887 5886 5885 5884 5883 5883 5882 5881 5880 5879 5878 5878 5877 5875 5874 5872 5870 5868 5867 5865 5863
5888 5888 5889 5890 5890 5891 5891 5891 5890 5889 5891 5892 5892 5892 5891 5891 5890 5889 5889 5888 5886 5885 5884 5883 5883 5882 5881 5880 5879 5878 5878 5877 5876 5875 5874 5872 5871 5869 5867 5865 5863 5861 5859
5884 5884 5885 5886 5886 5887 5887 5887 5887 5886 5887 5888 5889 5888 5888 5888 5887 5887 5886 5885 5884 5883 5882 5881 5880 5879 5878 5878 5877 5876 5875 5874 5873 5872 5871 5869 5867 5865 5863 5861 5859 5857 5855
5879 5879 5880 5881 5882 5882 5883 5883 5883 5884 5884 5885 5885 5885 5884 5884 5884 5883 5882 5882 5881 5880 5879 5878 5877 5876 5875 5875 5874 5873 5872 5871 5870 5869 5867 5866 5864 5861 5859 5857 5855 5852 5850
5873 5874 5875 5875 5876 5877 5878 5878 5879 5879 5880 5880 5881 5881 5880 5880 5880 5879 5879 5878 5877 5876 5876 5875 5874 5873 5872 5871 5870 5869 5868 5867 5866 5865 5864 5862 5860 5857 5855 5852 5850 5848 5845
5867 5868 5868 5869 5870 5871 5872 5873 5874 5875 5875 5875 5876 5876 5876 5876 5875 5875 5874 5874 5873 5872 5872 5871 5870 5869 5868 5867 5866 5865 5864 5863 5862 5861 5859 5857 5855 5853 5850 5848 5845 5843 5840
5860 5861 5862 5862 5863 5865 5867 5868 5869 5869 5870 5870 5871 5871 5871 5871 5870 5870 5870 5869 5868 5868 5867 5866 5866 5865 5864 5863 5862 5861 5859 5858 5857 5856 5854 5852 5850 5848 5845 5843 5840 5837 5835
5853 5854 5855 5855 5856 5858 5859 5861 5862 5863 5864 5864 5865 5865 5865 5865 5865 5865 5864 5864 5863 5863 5862 5861 5861 5860 5859 5858 5857 5856 5854 5853 5852 5850 5848 5846 5844 5842 5840 5837 5834 5832 5829
5846 5847 5847 5847 5848 5850 5851 5853 5855 5857 5858 5858 5859 5859 5859 5859 5859 5858 5858 5857 5857 5856 5856 5855 5855 5854 5853 5852 5851 5850 5848 5847 5846 5844 5842 5840 5838 5836 5833 5831 5828 5826 5823
5839 5839 5840 5840 5842 5843 5844 5846 5848 5849 5851 5851 5852 5852 5852 5852 5852 5852 5851 5851 5850 5850 5849 5849 5848 5847 5846 5846 5845 5843 5842 5840 5839 5838 5836 5834 5831 5829 5826 5824 5821 5819 5816
5831 5831 5832 5833 5835 5836 5838 5839 5841 5842 5843 5844 5844 5845 5845 5845 5845 5844 5844 5843 5843 5842 5842 5841 5841 5840 5840 5839 5838 5836 5835 5833 5832 5830 5828 5827 5824 5822 5819 5817 5814 5811 5809
5822 5823 5824 5826 5827 5828 5830 5832 5833 5834 5835 5835 5836 5837 5837 5837 5837 5837 5836 5836 5835 5834 5834 5833 5833 5833 5832 5831 5830 5828 5827 5825 5824 5822 5821 5819 5817 5814 5812 5809 5806 5804 5801
5814 5815 5816 5818 5819 5821 5822 5824 5825 5826 5826 5827 5827 5828 5828 5828 5828 5828 5828 5827 5827 5826 5826 5825 5825 5824 5824 5823 5822 5820 5819 5818 5816 5815 5813 5811 5808 5806 5804 5801 5799 5796 5793
5805 5806 5808 5809 5811 5813 5814 5815 5816 5817 5817 5818 5818 5818 5819 5819 5819 5819 5819 5819 5819 5818 5818 5817 5817 5816 5816 5815 5814 5812 5811 5809 5808 5806 5804 5802 5800 5797 5795 5792 5789 5786 5783
5796 5797 5799 5801 5802 5804 5805 5806 5807 5807 5808 5808 5808 5809 5809 5809 5809 5810 5810 5809 5809 5809 5809 5808 5808 5807 5807 5806 5805 5803 5802 5801 5799 5797 5795 5793 5790 5788 5785 5783 5780 5777 5774